COSMOS 2322

Satellite information

Favourite Embed

Satellite Type and Status

PAYLOADIN ORBIT

Key statistics

Satellite COSMOS 2322 at a glance.

Uptime

11001

Days in orbit

Revolutions

≈ 14.1

Per day

Orbit

LEO

Low Earth Orbit

Inclination

71.0

Latest

Satellite identification and parameters

Extended collection of information and parameters for COSMOS 2322.

Object identification

Identified? True

Debris? False

Object name: COSMOS 2322

International designator: 1995-058A

Object number (NORAD): 23704

Object ID (CCSDS): 23704

Country: COMMONWEALTH OF INDEPENDENT STATES (CIS)

Current information (Y/N): Y

RCS size: LARGE

Orbital parameters

Period: 101.854 minutes

Inclination: 70.9856 deg

SMA: 7224.581 km

Apoapsis: 851.826 km

Periapsis: 841.065 km

RAAN: 24.8389 deg

Eccentricy: 0.00074473

Argument of periapsis: 79.2329 deg

Mean anomaly: 280.9631 deg

Mean motion: 14.13786331 rev/day

Mean motion (dot): 0.00000378 rev/day2

B* drag term: 0.00022475638 1/REarth

Two-line elements (TLE)

Creation date: Dec. 12, 2025, 10:14 a.m.

Reference frame: TEME

Reference center: EARTH

Epoch: Dec. 12, 2025, 7:07 a.m. UTC

TLE line 0: 0 COSMOS 2322

TLE line 1: 1 23704U 95058A 25346.29705066 .00000378 00000-0 22476-3 0 9990

TLE line 2: 2 23704 70.9856 24.8389 0007447 79.2329 280.9631 14.13786331553707

Live tracking on map

Real-time ground track for satellite COSMOS 2322.

In-orbit conjunctions

A list of the most updated potential collisions computed for object COSMOS 2322.

Target Orbit TCA Probability of collision Miss distance Type
FENGYUN 1C DEB SSO 2025-12-05 15:55:06 0.0007260208 194.0 (m) DEBRIS
COSMOS 1275 DEB LEO 2025-09-30 03:45:50 0.0002359881 655.0 (m) DEBRIS
FENGYUN 1C DEB SSO 2025-06-21 10:12:55 0.0001591522 198.0 (m) DEBRIS
FENGYUN 1C DEB SSO 2025-06-06 08:05:47 0.0001468862 431.0 (m) DEBRIS
CZ-2C DEB SSO 2025-01-06 12:27:55 0.000540573 771.0 (m) DEBRIS

Associated space launch

Second generation ELING satellite

COSMOS 2322 was lifted into orbit during the mission ‘Zenit-2 | Tselina-2 17’, on board a Zenit-2 space rocket.

The launch took place on Oct. 31, 1995, 8:19 p.m. from 45/1.

For more information about the launch, click the button.

Launch to space Zenit-2 | Tselina-2 17
Zenit-2 | Tselina-2 17

Agency: N/A

Status: Launch Successful

Launch date: Oct. 31, 1995, 8:19 p.m. UTC

Rocket: Zenit-2

Launch pad: 45/1

Location: Baikonur Cosmodrome, Republic of Kazakhstan

...

Latest news about this satellite

There are no fresh news available about this satellite. Check back as we update our databases every day.


Newsletter sign-up

Weekly statistics, charts and insights to help you stay on top of the space industry.